Faith, SD

7:39 PM MST on February 23, 2017 (GMT -0700)
Faith

Weather History for KD07 - March, 2014

Change the Weather History Date:

Friday, March 14, 2014

  Actual Average Record
Temperature  
Mean Temperature 42 °F 32 °F  
Max Temperature 55 °F 42 °F 74 °F (2015)
Min Temperature 29 °F 22 °F 18 °F (2002)
Degree Days  
Heating Degree Days 23 33  
Month to date heating degree days 550 497  
Since 1 July heating degree days 6636 6185  
Cooling Degree Days 0 0  
Month to date cooling degree days 0 0  
Year to date cooling degree days 0 0  
Moisture  
Dew Point 27 °F    
Average Humidity 60    
Maximum Humidity 85    
Minimum Humidity 35    
Precipitation  
Precipitation 0.00 in 0.03 in 0.06 in (2007)
Month to date precipitation 0.69 0.34  
Year to date precipitation 1.59 0.96  
Sea Level Pressure  
Sea Level Pressure 29.89 in    
Wind  
Wind Speed 10 mph (NW)    
Max Wind Speed 24 mph    
Max Gust Speed 28 mph    
T = Trace of Precipitation, MM = Missing Value Source: NWS Daily Summary

Daily Weather History Graph

Daily Weather History Graph

Search for Another Location

Airport or City:

Trip Planner

Search our weather history database for the weather conditions in past years. The results will help you decide how hot, cold, wet, or windy it might be!

Date:

Astronomy

Mar. 14, 2014 Rise Set
Actual Time 7:02 AM MDT 6:52 PM MDT
Civil Twilight 6:33 AM MDT 7:22 PM MDT
Nautical Twilight 5:58 AM MDT 7:56 PM MDT
Astronomical Twilight 5:24 AM MDT 8:31 PM MDT
Moon 5:14 PM MDT (3/14) 5:47 AM MDT (3/14)
Length of Visible Light 12h 49m
Length of Day
11h 50m
Waxing Gibbous, 96% of the Moon is Illuminated
Mar 14
Waxing Gibbous
Mar 16
Full
Mar 23
Last Quarter
Mar 30
New
Apr 7
First Quarter

Hourly Weather History & Observations

Time (MDT) Temp. Windchill Dew Point Humidity Pressure Visibility Wind Dir Wind Speed Gust Speed Precip Events Conditions
12:56 AM 34.0 °F 23.8 °F 28.0 °F 79% 29.87 in - WNW 16.1 mph - N/A   Unknown
1:56 AM 34.0 °F 22.7 °F 27.0 °F 75% 29.88 in - WNW 19.6 mph - N/A   Unknown
2:56 AM 33.1 °F 22.6 °F 27.0 °F 78% 29.88 in - West 16.1 mph - N/A   Unknown
3:56 AM 33.1 °F 21.9 °F 26.1 °F 75% 29.88 in - WNW 18.4 mph - N/A   Unknown
4:56 AM 32.0 °F 22.1 °F 26.1 °F 79% 29.89 in - WNW 13.8 mph - N/A   Unknown
5:56 AM 30.0 °F 20.5 °F 25.0 °F 82% 29.91 in - West 11.5 mph - N/A   Unknown
6:56 AM 28.9 °F 19.8 °F 25.0 °F 85% 29.93 in - WNW 10.4 mph - N/A   Unknown
7:56 AM 32.0 °F 22.1 °F 26.1 °F 79% 29.95 in - WNW 13.8 mph - N/A   Unknown
8:56 AM 36.0 °F 28.0 °F 27.0 °F 70% 29.96 in - WNW 11.5 mph - N/A   Unknown
9:56 AM 39.9 °F 32.9 °F 26.1 °F 58% 29.96 in - NW 11.5 mph - N/A   Unknown
10:56 AM 43.0 °F 37.2 °F 26.1 °F 51% 29.94 in - NW 10.4 mph - N/A   Unknown
11:56 AM 46.0 °F 43.1 °F 27.0 °F 47% 29.93 in - NNW 5.8 mph - N/A   Unknown
12:56 PM 48.0 °F - 27.0 °F 44% 29.91 in - WNW 9.2 mph - N/A   Unknown
1:56 PM 50.0 °F - 27.0 °F 41% 29.88 in - Calm Calm - N/A   Unknown
2:56 PM 53.1 °F - 27.0 °F 37% 29.86 in - NW 4.6 mph - N/A   Unknown
3:56 PM 54.0 °F - 28.0 °F 37% 29.84 in - WNW 8.1 mph - N/A   Unknown
4:56 PM 55.0 °F - 28.0 °F 35% 29.82 in - West 4.6 mph - N/A   Unknown
5:56 PM 52.0 °F - 27.0 °F 38% 29.83 in - NE 3.5 mph - N/A   Unknown
6:56 PM 46.9 °F - 30.9 °F 54% 29.85 in - ESE 6.9 mph - N/A   Unknown
7:56 PM 44.1 °F 39.0 °F 30.0 °F 58% 29.86 in - ESE 9.2 mph - N/A   Unknown
8:56 PM 43.0 °F 37.7 °F 30.0 °F 60% 29.85 in - ESE 9.2 mph - N/A   Unknown
9:56 PM 39.9 °F 34.5 °F 28.9 °F 65% 29.88 in - East 8.1 mph - N/A   Unknown
10:56 PM 39.0 °F 30.3 °F 25.0 °F 57% 29.86 in - SE 16.1 mph - N/A   Unknown
11:56 PM 37.9 °F 28.2 °F 26.1 °F 62% 29.85 in - SSE 18.4 mph - N/A   Unknown